sat.trackr.live / text

‹ back to catalog

STARLINK-31317

NORAD 58931 · 2024-027A

PAYLOAD ACTIVE UNKNOWN

§ Identity

Operator
Country
US
Launch date
2024-02-10
Launch site
AFWTR
Launch vehicle
Mass (kg)
RCS (m²)

Purposes: comms

External: N2YO · Heavens-Above · Gunter

§ Orbital elements

Epoch: 2026-05-25T04:44:40.613856Z

Period
94.10 min
Inclination
53.1626°
Eccentricity
0.0001447
Mean motion
15.30207503 rev/d
Perigee alt
474.2 km
Apogee alt
476.2 km
Semi-major
6,853.3 km
B*
-6.3992e-5
RAAN
314.1353°
Arg perigee
95.1257°
Mean anomaly
264.9909°
Rev number
12,888

§ Raw data

STARLINK-313171 58931U 24027A   26145.19769229 -.00002254  00000+0 -63992-4 0  99912 58931  53.1626 314.1353 0001447  95.1257 264.9909 15.30207503128888

JSON: /api/v1/satellites/58931 · /tle

For live sub-satellite position, see the globe view (requires WebGL).

§ Visibility from observer

Set your observer location to see the next 7 days of passes ≥ 10°. The values pass through the URL so the page stays shareable.

No JS? Fill the form by hand. The geolocation button needs JavaScript.